Farmington, NM

1:27 AM MDT on April 27, 2017 (GMT -0600)
Four Corners Regional

Weather History for KFMN - February, 2013

Change the Weather History Date:

Saturday, February 23, 2013

  Actual Average Record
Temperature  
Mean Temperature 29 °F -  
Max Temperature 43 °F 46 °F 64 °F (1982)
Min Temperature 15 °F 24 °F 15 °F (2006)
Degree Days  
Heating Degree Days 36    
Moisture  
Dew Point 16 °F    
Average Humidity 59    
Maximum Humidity 93    
Minimum Humidity 17    
Precipitation  
Precipitation 0.01 in - - ()
Sea Level Pressure  
Sea Level Pressure 29.92 in    
Wind  
Wind Speed 8 mph (North)    
Max Wind Speed 22 mph    
Max Gust Speed 29 mph    
Visibility 8 miles    
Events Snow    
Averages and records for this station are not official NWS values.
T = Trace of Precipitation, MM = Missing Value Source: NWS Daily Summary

Daily Weather History Graph

Daily Weather History Graph

Search for Another Location

Airport or City:

Trip Planner

Search our weather history database for the weather conditions in past years. The results will help you decide how hot, cold, wet, or windy it might be!

Date:

Astronomy

Feb. 23, 2013 Rise Set
Actual Time 6:51 AM MST 6:01 PM MST
Civil Twilight 6:24 AM MST 6:27 PM MST
Nautical Twilight 5:54 AM MST 6:58 PM MST
Astronomical Twilight 5:24 AM MST 7:28 PM MST
Moon 4:16 PM MST (2/23) 5:13 AM MST (2/23)
Length of Visible Light 12h 03m
Length of Day
11h 10m
Waxing Gibbous, 95% of the Moon is Illuminated
Feb 23
Waxing Gibbous
Feb 25
Full
Mar 4
Last Quarter
Mar 11
New
Mar 19
First Quarter

Hourly Weather History & Observations

Time (MST) Temp. Windchill Dew Point Humidity Pressure Visibility Wind Dir Wind Speed Gust Speed Precip Events Conditions
12:53 AM 21.9 °F 14.5 °F 10.9 °F 63% 30.11 in 10.0 mi SW 5.8 mph - N/A   Clear
1:53 AM 21.0 °F 13.4 °F 10.9 °F 65% 30.11 in 10.0 mi WSW 5.8 mph - N/A   Clear
2:53 AM 21.0 °F 16.2 °F 10.9 °F 65% 30.09 in 10.0 mi West 3.5 mph - N/A   Clear
3:53 AM 19.0 °F 13.9 °F 10.0 °F 68% 30.11 in 10.0 mi WNW 3.5 mph - N/A   Clear
4:53 AM 17.1 °F - 9.0 °F 71% 30.13 in 10.0 mi Calm Calm - N/A   Clear
5:53 AM 17.1 °F 5.8 °F 10.9 °F 77% 30.13 in 10.0 mi East 9.2 mph - N/A   Clear
6:53 AM 17.1 °F 5.8 °F 9.0 °F 71% 30.14 in 10.0 mi East 9.2 mph - N/A   Clear
7:53 AM 19.9 °F 8.6 °F 10.0 °F 65% 30.14 in 10.0 mi East 10.4 mph - N/A   Clear
8:53 AM 25.0 °F 16.3 °F 12.9 °F 60% 30.12 in 10.0 mi East 8.1 mph - N/A   Clear
9:53 AM 30.0 °F 22.4 °F 14.0 °F 51% 30.09 in 10.0 mi East 8.1 mph - N/A   Clear
10:53 AM 34.0 °F 25.5 °F 12.9 °F 42% 30.03 in 10.0 mi ESE 11.5 mph - N/A   Clear
11:53 AM 37.9 °F 32.7 °F 10.9 °F 33% 30.01 in 10.0 mi East 6.9 mph - N/A   Partly Cloudy
12:53 PM 37.9 °F 30.9 °F 12.0 °F 35% 29.93 in 10.0 mi East 10.4 mph - N/A   Clear
1:53 PM 42.1 °F 34.5 °F 12.0 °F 29% 29.85 in 10.0 mi East 15.0 mph - N/A   Partly Cloudy
2:53 PM 43.0 °F 35.4 °F 12.0 °F 28% 29.81 in 10.0 mi East 16.1 mph - N/A   Clear
3:53 PM 43.0 °F 35.7 °F 12.0 °F 28% 29.78 in 10.0 mi ENE 15.0 mph - N/A   Clear
4:53 PM 43.0 °F 36.8 °F 12.9 °F 30% 29.77 in 10.0 mi ENE 11.5 mph - N/A   Partly Cloudy
5:53 PM 39.0 °F 32.8 °F 12.9 °F 34% 29.76 in 10.0 mi ENE 9.2 mph - N/A   Clear
6:53 PM 37.0 °F 30.4 °F 12.0 °F 36% 29.78 in 10.0 mi ENE 9.2 mph - N/A   Mostly Cloudy
7:53 PM 35.1 °F - 21.0 °F 57% 29.75 in 9.0 mi Calm Calm - 0.00 in   Mostly Cloudy
9:06 PM 32.0 °F 21.6 °F 26.6 °F 80% 29.74 in 8.0 mi WNW 15.0 mph 23.0 mph 0.00 in Snow Light Snow
9:16 PM 32.0 °F 20.5 °F 28.4 °F 87% 29.74 in 3.0 mi WNW 18.4 mph 24.2 mph 0.00 in Snow Light Snow
9:24 PM 32.0 °F 20.8 °F 28.4 °F 87% 29.75 in 2.5 mi WNW 17.3 mph - 0.00 in Snow Light Snow
9:36 PM 30.2 °F 19.3 °F 28.4 °F 93% 29.75 in 1.8 mi West 15.0 mph - 0.00 in Snow Light Snow
9:53 PM 28.9 °F 15.4 °F 27.0 °F 92% 29.81 in 1.5 mi West 21.9 mph 28.8 mph 0.01 in Snow Light Snow
10:06 PM 28.4 °F 17.0 °F 26.6 °F 93% 29.77 in 3.0 mi West 15.0 mph 26.5 mph 0.00 in Snow Light Snow
10:21 PM 28.4 °F 17.5 °F 26.6 °F 93% 29.78 in 3.0 mi NW 13.8 mph 21.9 mph 0.00 in Snow Light Snow
10:29 PM 28.4 °F 17.0 °F 26.6 °F 93% 29.77 in 3.0 mi NW 15.0 mph 26.5 mph 0.00 in Snow Light Snow
10:53 PM 28.0 °F 21.7 °F 25.0 °F 88% 29.84 in 9.0 mi NW 5.8 mph - 0.00 in Snow Light Snow
11:53 PM 28.0 °F 20.0 °F 23.0 °F 81% 29.83 in 10.0 mi West 8.1 mph - 0.00 in   Overcast